STARLINK-33762, 63442

Orbit data source: Space-Track

STARLINK-33762, 63442 is a payload satellite owned by SpaceX/Seattle (US) in LEO that was launched on Fri, 04 Apr 2025 UTC via an FALCON 9 launch vehicle from the Air Force Western Test Range (AFWTR). Payload-class satellites include a variety of spacecraft equipped with specific instruments for various scientific and technological missions. These include communications satellites like Starlink; space stations such as the ISS; scientific satellites like the Hubble; Earth observation satellites from companies like Planet Labs, Umbra, and HawkEye 360; GPS; miniature CubeSats for education and research; and military/defense satellites.

Loading next visibility...
Identifier
63442, 2025-069K
Orbit
LEO
Country
Flag of USUS
Related business
Manufacturer
SpaceX/Seattle
Mission
Operational Commercial Communications
Bus & Motor
STARLINK V2MO, Unknown motor
Mass
575 kg wet, ~530 kg dry
Launch date (UTC)
2025-04-04 (8 months ago)
Launch vehicle
FALCON 9
Launch site
Air Force Western Test Range (AFWTR)
Object type
Payload
Rocket body
Debris
Shape & HBR
Box + 2 Pan, 17.7 m
Radar Cross Section
36.964 m², Large (>1 m²)

Expand to show TLE details & history
Last TLE update: 17 hours ago

TLE from 17 hours ago
0 STARLINK-33762
1 63442U 25069K   25348.91030772  .00016638  00000-0  57277-3 0  9997
2 63442  53.1582 176.3416 0001159  87.7169 272.3965 15.30191447 40426
Epoch: 2025-12-14T21:50Z
TLE epoch observation values (Epoch: 2025-12-14T21:50:50.587Z)
Latitude
-0°
Longitude
124.81437°
Altitude
476.107 km
Speed
7.629 km/s
True Right ascension
11h 45m 21s
True Declination
0° 00' 00"
Sunlit
Object was in daylight at epoch
Visualization orbit readout
Latitude
Unknown
Longitude
Unknown
Altitude
Unknown
Speed
Unknown
Apparent Right ascension
Unknown
Apparent Declination
Unknown
Sunlit
N/A
Visualization observer readout
Local Sidereal Time
13:26:11
Azimuth
Unknown
Elevation
Unknown
Doppler factor
Unknown
Orbital elements
Apogee altitude
476.292 km
Perigee altitude
474.703 km
Semi-major axis
6,853.634 km
Eccentricity
0.00012
Inclination
53.1582°
RAAN
176.3416°
Arg. of periapsis
87.7169°
True anomaly
272.38323°
Mean anomaly
272.3965°
Eccentric anomaly
272.38987°
Mean motion
3.82527 °/min
Orbital period
94.11 mins
BSTAR
0.00057277
Loading maneuver chart data...
Computing Atmospheric mass density...
Loading historical data...
Loading historical data...
Loading historical data...
Loading historical data...
Loading historical data...
Loading historical data...
Loading historical data...

Documentation

Showing up to 5 results
|